Regional Weather Roundup
Issued by NWS Upton, NY

Current Version | Previous Version | Graphics & Text | Print | Product List | Glossary On
Versions: 1 2 3 4 5 6 7 8 9 10 11 12 13 14 15 16 17 18 19 20 21 22 23 24 25 26 27 28 29 30 31 32 33 34 35 36 37 38 39 40 41 42 43 44 45 46 47 48 49 50
000
ASUS41 KOKX 271708
RWROKX

REGIONAL WEATHER ROUNDUP
NATIONAL WEATHER SERVICE NEW YORK NY
100 PM EDT TUE SEP 27 2016

NOTE: "FAIR" INDICATES FEW OR NO CLOUDS BELOW 12,000 FEET WITH NO
SIGNIFICANT WEATHER AND/OR OBSTRUCTIONS TO VISIBILITY.

NYZ071-072-176-178-NJZ106-104-271800-
NEW YORK CITY METRO AREA

CITY           SKY/WX    TMP DP  RH WIND       PRES   REMARKS
Central Park   FAIR      71  59  65 CALM      29.94F
LaGuardia APRT PTSUNNY   72  58  61 NW3       29.91F
Kennedy INTL   PTSUNNY   74  58  57 VRB5      29.92F
Newark/Liberty PTSUNNY   73  55  53 W5        29.92F
Bronx Bot Gard   N/A     70  57  64 NW3       29.93F
Wall St Helipt FAIR      73  59  60 SW5       29.93S
Teterboro      FAIR      72  55  55 W3        29.91F
$$

NYZ177-179-078>081-271800-
LONG ISLAND NEW YORK

CITY           SKY/WX    TMP DP  RH WIND       PRES   REMARKS
Farmingdale    FAIR      71  60  68 SW3       29.92F
MacArthur/ISP  CLOUDY    71  61  70 CALM      29.91F
Shirley        PTSUNNY   71  63  75 NW3       29.92F
Riverhead      NOT AVBL
Westhampton    PTSUNNY   70  61  73 NW5       29.93F
Southampton      N/A     70  64  83 NW3       29.88F
Bridgehampton    N/A     70  64  83 CALM      29.77F
East Hampton   CLOUDY    67  62  84 NW3       29.91F
Montauk          N/A     69  63  81 W5        29.93S
$$

NYZ052-065-067-271800-
HUDSON VALLEY

CITY           SKY/WX    TMP DP  RH WIND       PRES   REMARKS
White Plains   FAIR      70  57  63 CALM      29.91F
Newburgh       PTSUNNY   68  59  73 CALM      29.93F
Montgomery     PTSUNNY   69  57  65 SW6       29.91F
Poughkeepsie   CLOUDY    67  57  70 W3        29.91F
Albany         FAIR      69  50  50 CALM      29.91F
$$

NJZ001-105-106-008-010-013-015-019>022-104-271800-
NEW JERSEY

CITY           SKY/WX    TMP DP  RH WIND       PRES   REMARKS
Newark/Liberty PTSUNNY   73  55  53 W5        29.92F
Teterboro      FAIR      72  55  55 W3        29.91F
Caldwell       FAIR      71  55  56 VRB6      29.92F
Morristown     PTSUNNY   70  55  60 CALM      29.93F
Somerville     FAIR      70  55  59 W6        29.91F
Linden         NOT AVBL
Sussex         FAIR      69  54  58 CALM      29.92F
Abdover          N/A     67  54  63 CALM      29.94F
Trenton        FAIR      70  53  54 W6        29.93F
Millville      CLOUDY    67  66  97 SW3       29.95F
Atlantic City  LGT RAIN  66  59  78 W6        29.95S
Wrightstown    LGT RAIN  72  59  64 VRB2      29.91F
Toms River     PTSUNNY   71  61  70 W7        29.95S
Belmar         FAIR      70  60  70 W6        29.94F
$$

PAZ047>061-062-071-271800-
EASTERN PENNSYLVANIA

CITY           SKY/WX    TMP DP  RH WIND       PRES   REMARKS
Philadelphia   PTSUNNY   70  55  59 W5        29.94F
Allentown      FAIR      71  50  47 S7        29.93F
Scranton       FAIR      68  50  52 W8        29.92F
$$

CTZ002-004>006-009-010-012-RIZ004-006-007-MAZ004-011-015-271800-
SOUTHERN NEW ENGLAND
 IN CT

CITY           SKY/WX    TMP DP  RH WIND       PRES   REMARKS
Bradley INTL   PTSUNNY   71  56  58 W5        29.91F
Hartford       FAIR      69  60  73 VRB3      29.90F
Danbury        PTSUNNY   67  55  65 CALM      29.93F
Wtrbury/Oxford PTSUNNY   68  55  64 N5        29.94F
Bridgeport     FAIR      70  60  70 S7        29.91F
Meriden        FAIR      72  58  61 CALM      29.91F
New Haven      CLOUDY    70  59  68 VRB3      29.91F
Chester        FAIR      70  59  68 CALM      29.92F
Groton         PTSUNNY   71  61  70 CALM      29.91S
Wilimantic     FAIR      71  61  70 VRB3      29.91F

 IN RI

CITY           SKY/WX    TMP DP  RH WIND       PRES   REMARKS
Providence     PTSUNNY   71  60  68 CALM      29.91S
Block Island   CLOUDY    67  63  87 W8        29.93R
Westerly       PTSUNNY   71  61  70 NW5       29.92S
 IN MA

CITY           SKY/WX    TMP DP  RH WIND       PRES   REMARKS
Boston         CLOUDY    70  59  68 W8        29.89S
Worcester      FAIR      66  52  60 W3        29.92S
Westfield      FAIR      69  55  60 SW3       29.90F
Provincetown   CLOUDY    65  63  93 NW6       29.90S
Nantucket      LGT RAIN  66  65  96 W13       29.91S
$$

ANZ330-335-338-340-345-350-353-355-271800-
COASTAL MARINE OBSERVATIONS


STATION/POSITION TIME  SKY/WX   TEMP    WIND        PRES    VSBY  WAVE
                                AIR SEA DIR/SP/G                  HT/PER
                 (UTC)          (F)     (DEG/KT/KT) (MB)    (MI)  (FT/S)
NY HARB ENTRANCE 1650            68 71  290/  6/  8 1013.4          3/ 5
20S FIRE ISLAND  1650            68 70  300/  8/  8 1013.2          4/ 6
GREAT SOUTH BAY  1630            68 70  260/  2/  4   N/A
23 SSW MONTAUK P 1550            66 67  250/  8/ 10 1013.9          4/ 6
15 E BARNEGAT LI 1630               71                N/A           5/ 6
HUDSON CANYON    1550            69 69              1013.9          6/ 7
KINGS POINT      1636            69 72              1012.8
EXECUTION ROCKS  1645            72     230/  2/  4   N/A
CENTRAL LI SOUND 1615            67 72  300/  6/  8   N/A           1/ 4
EASTERN LI SOUND NOT AVBL
ROBBINS REEF     1636            69     250/  3/  4 1013.4
$$


>>>>>>>>>>>>>>>>>>>>>>>>>>>> KEY <<<<<<<<<<<<<<<<<<<<<<<<<<<
>                                                          <
>     SKY/WX - Sky Condition/Present Weather               <
>     TMP    - Temperature in Fahrenheit                   <
>     DP     - Dew Point in Fahrenheit                     <
>     RH     - Relative Humidity in Percent                <
>     WIND   - Direction (from) and Speed in MPH           <
>     PRES   - Mean Sea Level Pressure (inches of Hg)      <
>     WCI    - Wind Chill Index                            <
>     VSB    - VISIBILITY IN MILES                         <
>     HX     - HEAT INDEX                                  <
>     TC     - TEMPERATURE IN CELSIUS                      <
>     VRB    - VARIABLE WIND DIRECTION                     <
>                                                          <
>>>>>>>>>>>>>>>>>>>>>>>>>>>> KEY <<<<<<<<<<<<<<<<<<<<<<<<<<<




USA.gov is the U.S. government's official web portal to all federal, state and local government web resources and services.